Regional Weather Roundup
Issued by NWS Lake Charles, LA

Home | Current Version | Previous Version | Text Only | Print | Product List | Glossary On
Versions: 1 2 3 4 5 6 7 8 9 10 11 12 13 14 15 16 17 18 19 20 21 22 23 24 25 26 27 28 29 30 31 32 33 34 35 36 37 38 39 40 41 42 43 44 45 46 47 48 49 50
000
ASUS44 KLCH 311010
RWRLCH
RWRLCH
REGIONAL WEATHER ROUNDUP
NATIONAL WEATHER SERVICE LAKE CHARLES LA
500 AM CDT SUN AUG 31 2014

Note: "fair" indicates few or no clouds below 12,000 feet with no
significant weather and/or obstructions to visibility.


ACROSS SOUTHEAST TEXAS

CITY           SKY/WX    TMP DP  RH WIND       PRES   REMARKS
BEAUMONT       MOCLDY    75  73  93 S3        29.97R
BEAUMONT CITY    N/A     74  74  98 CALM      29.98R
ORANGE         CLOUDY    75  75 100 CALM      30.00R
JASPER         CLOUDY    72  70  95 CALM      30.02R FOG
$$

ACROSS CENTRAL LOUISIANA

CITY           SKY/WX    TMP DP  RH WIND       PRES   REMARKS
LEESVILLE      CLOUDY    74  73  97 CALM      30.01R
FULLERTON      CLOUDY    76  73  91 CALM      29.99R
ALEXANDRIA INT MOCLDY    74  72  93 SE9       30.00R
ESLER FIELD    MOCLDY    75  72  90 SE5       30.02R
DERIDDER       PTSUNNY   74  73  95 CALM      30.02R FOG
OAKDALE        CLOUDY    74  73  96 CALM      30.01R
OPELOUSAS        N/A     73  72  97 CALM      30.03R
$$

ACROSS SOUTHWEST AND SOUTH CENTRAL LOUISIANA

CITY           SKY/WX    TMP DP  RH WIND       PRES   REMARKS
SULPHUR        CLOUDY    78  77  98 E5        30.00R
LAKE CHARLES   CLOUDY    76  75  97 E6        29.99S
CHENNAULT INT  NOT AVBL
CAMERON PHI      N/A     82  77  83 S8        30.00R
DEQUINCY         N/A     74  74  98 SE3       30.00R
JENNINGS       PTSUNNY   74  73  98 SE3       30.01R
LAFAYETTE      CLOUDY    74  73  97 CALM      30.03R
NEW IBERIA     CLOUDY    75  74  96 E6        30.03S
ABBEVILLE        N/A     74  74  99 CALM      30.02S
PATTERSON        N/A     73  72  94 NE3       30.05S
SALT POINT       N/A     79  76  90 CALM      30.02R
$$

SELECTED SITES ACROSS THE REGION

CITY           SKY/WX    TMP DP  RH WIND       PRES   REMARKS
HOUSTON BUSH   NOT AVBL
HOUSTON HOBBY  MOCLDY    77  75  93 CALM      29.96R
GALVESTON      MOCLDY    82  77  84 S14       29.97R
COLLEGE STAT   PTCLDY    73  71  93 SE5       29.96R
CONROE         MOCLDY    72  70  93 CALM      29.98R
HUNTSVILLE     PTCLDY    74  72  93 S3        29.98R
LUFKIN         MOCLDY    75  71  87 E3        29.98R
SHREVEPORT     MOCLDY    74  72  93 S7        29.98R
MONROE         CLOUDY    73  71  93 S7        30.03R
NATCHEZ MS     CLOUDY    73  70  88 S8        30.06R
BATON ROUGE    CLOUDY    73  71  93 NE3       30.04S
N.O. INTL ARPT MOCLDY    75  73  93 CALM      30.03R
SLIDELL        CLOUDY    73  70  90 CALM      30.04R
$$

MARINE REPORTS

STATION/POSITION TIME  TEMP    WIND        PRES    VSBY  WAVE
                       AIR SEA DIR/SP/G                  HT/PER
                 (UTC) (F)     (DEG/KT/KT) (MB)    (MI)  (FT/S)
BUOY 30 S HIGH I 1000   83 85  160/ 14/ 16 1014.3R         4/ 7
SEA RIM ST PARK  1000   82     180/  9/ 11 1015.6R
PORT ARTHUR      1000      83  170/  3/  4 1015.1R
SABINE PASS N    1000   81 82  190/  5/  8 1015.1R
TEXAS POINT      1000   82 82  170/ 11/ 12 1015.1R
CALCASIEU PASS   1000   82 81  180/ 10/ 12 1016.5S
LK CHARLES BEACH 1000   76                 1016.4R
MARSH ISLAND     NOT AVBL
FRESH WATER LOCK 1000   80 80  120/  3/  4 1016.2R
AMERADA PASS     1000   76 83   30/  2/  3 1016.5R
$$


USA.gov is the U.S. government's official web portal to all federal, state and local government web resources and services.